Weather History for Monroe, LA

Change the Weather History Date:

Sunday, November 24, 2013

  Actual Average Record
Temperature  
Mean Temperature 36 °F 54 °F  
Max Temperature 42 °F 65 °F 86 °F (1973)
Min Temperature 30 °F 42 °F 19 °F (1970)
Degree Days  
Heating Degree Days 29 12  
Month to date heating degree days 257 205  
Since 1 July heating degree days 323 295  
Cooling Degree Days 0 0  
Month to date cooling degree days 13 22  
Year to date cooling degree days 2433 2506  
Moisture  
Dew Point 24 °F    
Average Humidity 61    
Maximum Humidity 76    
Minimum Humidity 46    
Precipitation  
Precipitation 0.00 in 0.16 in 2.12 in (2000)
Month to date precipitation 3.04 3.77  
Year to date precipitation 45.19 47.66  
Snow  
Snow 0.00 in - - ()
Month to date snowfall 0.0  
Since 1 July snowfall 0.0  
Since 1 September snowfall 0.0  
Snow Depth 0.00 in    
Sea Level Pressure  
Sea Level Pressure 30.50 in    
Wind  
Wind Speed 12 mph (NE)    
Max Wind Speed 22 mph    
Max Gust Speed 29 mph    
Visibility 10 miles    
Events      
T = Trace of Precipitation, MM = Missing Value Source: NWS Daily Summary

Daily Weather History Graph

Daily Weather History Graph

Search for Another Location

Airport:

Trip Planner

Search our weather history database for the weather conditions in past years. The results will help you decide how hot, cold, wet, or windy it might be!

Date:

Astronomy

Nov. 24, 2013 Rise Set
Actual Time 6:46 AM CST 5:03 PM CST
Civil Twilight 6:19 AM CST 5:30 PM CST
Nautical Twilight 5:49 AM CST 6:00 PM CST
Astronomical Twilight 5:19 AM CST 6:29 PM CST
Moon 11:18 PM CST (11/24) 11:43 AM CST (11/24)
Length of Visible Light 11h 10m
Length of Day
10h 17m
Waning Gibbous, 60% of the Moon is Illuminated
Nov 24
Waning Gibbous
Nov 25
Last Quarter
Dec 2
New
Dec 9
First Quarter
Dec 17
Full

Hourly Weather History & Observations

Time (CST) Temp. Windchill Dew Point Humidity Pressure Visibility Wind Dir Wind Speed Gust Speed Precip Events Conditions
12:53 AM 37.0 °F 30.4 °F 30.0 °F 76% 30.51 in 10.0 mi NNE 9.2 mph - N/A   Clear
1:53 AM 36.0 °F 28.5 °F 28.0 °F 73% 30.50 in 10.0 mi NNE 10.4 mph - N/A   Clear
2:53 AM 34.0 °F 24.6 °F 21.9 °F 61% 30.51 in 10.0 mi NNE 13.8 mph - N/A   Clear
3:53 AM 33.1 °F 23.9 °F 21.9 °F 64% 30.51 in 10.0 mi NNE 12.7 mph 19.6 mph N/A   Clear
4:53 AM 30.9 °F 23.5 °F 21.9 °F 69% 30.52 in 10.0 mi NNE 8.1 mph - N/A   Clear
5:53 AM 30.9 °F 22.8 °F 21.9 °F 69% 30.55 in 10.0 mi NNE 9.2 mph - N/A   Clear
6:53 AM 30.0 °F 20.5 °F 21.9 °F 72% 30.56 in 10.0 mi NNE 11.5 mph - N/A   Clear
7:53 AM 32.0 °F 23.0 °F 24.1 °F 73% 30.57 in 10.0 mi NNE 11.5 mph 21.9 mph N/A   Clear
8:53 AM 34.0 °F 23.4 °F 24.1 °F 67% 30.59 in 10.0 mi NE 17.3 mph 24.2 mph N/A   Clear
9:53 AM 36.0 °F 25.3 °F 23.0 °F 59% 30.60 in 10.0 mi NE 19.6 mph 26.5 mph N/A   Clear
10:53 AM 37.0 °F 27.4 °F 24.1 °F 59% 30.57 in 10.0 mi NE 17.3 mph 26.5 mph N/A   Clear
11:53 AM 39.0 °F 29.3 °F 24.1 °F 55% 30.53 in 10.0 mi NE 19.6 mph 26.5 mph N/A   Clear
12:53 PM 41.0 °F 32.5 °F 24.1 °F 51% 30.50 in 10.0 mi ENE 17.3 mph 23.0 mph N/A   Clear
1:53 PM 41.0 °F 32.5 °F 23.0 °F 49% 30.47 in 10.0 mi ENE 17.3 mph 23.0 mph N/A   Clear
2:53 PM 42.1 °F 35.2 °F 25.0 °F 51% 30.45 in 10.0 mi NE 12.7 mph 23.0 mph N/A   Clear
3:53 PM 39.0 °F 31.4 °F 25.0 °F 57% 30.44 in 10.0 mi NE 12.7 mph - N/A   Clear
4:53 PM 37.9 °F 29.2 °F 25.0 °F 60% 30.44 in 10.0 mi NE 15.0 mph 19.6 mph N/A   Clear
5:53 PM 37.0 °F 29.3 °F 25.0 °F 62% 30.46 in 10.0 mi NE 11.5 mph - N/A   Clear
6:53 PM 37.0 °F 28.9 °F 24.1 °F 59% 30.45 in 10.0 mi NE 12.7 mph - N/A   Clear
7:53 PM 36.0 °F 29.0 °F 25.0 °F 64% 30.46 in 10.0 mi NNE 9.2 mph - N/A   Partly Cloudy
8:53 PM 36.0 °F 30.3 °F 25.0 °F 64% 30.46 in 10.0 mi North 6.9 mph - N/A   Clear
9:53 PM 36.0 °F 29.0 °F 24.1 °F 62% 30.43 in 10.0 mi NE 9.2 mph - N/A   Overcast
10:53 PM 36.0 °F 31.1 °F 25.0 °F 64% 30.43 in 10.0 mi ENE 5.8 mph - N/A   Mostly Cloudy
11:53 PM 35.1 °F 29.3 °F 25.0 °F 67% 30.42 in 10.0 mi NNE 6.9 mph - N/A   Scattered Clouds